EW4264 Weather Reports


Display with metric or nautical units.
time (UTC)temp
F
wind
direction
speed
MPH
gust
MPH
rain 1hr
in
rain 24hr
in
rain mn
in
humidity
%
barometer
mb
20181216040007 45 34 0.0 0.0 0.00 0.00 0.00 56 1025.7
20181216034508 45 34 0.0 0.0 0.00 0.00 0.00 54 1025.6
20181216033028 46 342 0.0 0.0 0.00 0.00 0.00 51 1025.3
20181216031506 47 342 0.0 0.0 0.00 0.00 0.00 49 1025.0
20181216030210 47 342 0.0 0.0 0.00 0.00 0.00 48 1025.1
20181216024735 49 342 0.0 0.0 0.00 0.00 0.00 46 1025.1
20181216023129 48 342 0.0 0.0 0.00 0.00 0.00 46 1024.8
20181216021614 49 342 0.0 0.0 0.00 0.00 0.00 44 1024.7
20181216020058 50 342 0.0 0.0 0.00 0.00 0.00 42 1024.6
20181216014633 50 345 0.0 1.0 0.00 0.00 0.00 43 1024.7
20181216013133 50 355 0.0 1.0 0.00 0.00 0.00 44 1024.3
20181216011557 51 355 0.0 0.0 0.00 0.00 0.00 42 1024.1
20181216010054 52 355 0.0 0.0 0.00 0.00 0.00 42 1023.8
20181216004723 53 355 0.0 0.0 0.00 0.00 0.00 41 1023.7
20181216003101 54 355 0.0 0.0 0.00 0.00 0.00 41 1023.4
20181216001602 55 355 0.0 1.0 0.00 0.00 0.00 38 1023.2
20181216000059 57 355 0.0 0.0 0.00 0.00 0.00 35 1023.0
20181215234557 58 355 0.0 0.0 0.00 0.00 0.00 32 1022.8
20181215233117 60 355 0.0 2.0 0.00 0.00 0.00 29 1022.8
20181215231612 61 5 1.0 3.0 0.00 0.00 0.00 27 1023.0
20181215230134 62 355 1.0 5.0 0.00 0.00 0.00 25 1023.0
20181215224556 62 28 1.0 6.0 0.00 0.00 0.00 23 1022.9
20181215223136 63 46 4.0 9.0 0.00 0.00 0.00 20 1022.9
20181215221548 64 34 4.0 9.0 0.00 0.00 0.00 20 1022.9
20181215220103 64 33 4.0 11.0 0.00 0.00 0.00 20 1022.8
20181215214605 64 360 4.0 12.0 0.00 0.00 0.00 21 1022.7
20181215213124 64 46 4.0 10.0 0.00 0.00 0.00 20 1022.6
20181215211614 64 34 4.0 10.0 0.00 0.00 0.00 21 1022.6
20181215210026 64 19 5.0 9.0 0.00 0.00 0.00 22 1022.5
20181215204538 64 49 2.0 9.0 0.00 0.00 0.00 24 1022.4
20181215203027 63 45 5.0 10.0 0.00 0.00 0.00 25 1022.6
20181215201525 63 5 5.0 9.0 0.00 0.00 0.00 24 1022.5
20181215200023 63 63 2.0 10.0 0.00 0.00 0.00 26 1022.7
20181215194541 61 40 2.0 10.0 0.00 0.00 0.00 26 1022.9
20181215193030 61 41 6.0 12.0 0.00 0.00 0.00 26 1023.2
20181215191518 60 33 4.0 11.0 0.00 0.00 0.00 26 1023.3
20181215190029 60 360 3.0 10.0 0.00 0.00 0.00 28 1023.5
20181215184505 59 42 4.0 10.0 0.00 0.00 0.00 29 1023.8
20181215183140 58 17 4.0 12.0 0.00 0.00 0.00 30 1024.0
20181215181712 57 43 5.0 11.0 0.00 0.00 0.00 29 1024.2
20181215180108 56 26 6.0 13.0 0.00 0.00 0.00 30 1024.6
20181215174606 55 71 7.0 11.0 0.00 0.00 0.00 31 1024.8
20181215173140 54 57 7.0 11.0 0.00 0.00 0.00 31 1025.0
20181215171704 53 14 5.0 11.0 0.00 0.00 0.00 33 1025.1
20181215170117 53 27 5.0 13.0 0.00 0.00 0.00 34 1025.3
20181215164614 51 28 5.0 10.0 0.00 0.00 0.00 37 1025.3
20181215163052 50 46 3.0 11.0 0.00 0.00 0.00 37 1025.3
20181215161628 49 48 7.0 14.0 0.00 0.00 0.00 37 1025.4
20181215160102 48 23 9.0 15.0 0.00 0.00 0.00 38 1025.5
20181215154620 47 30 8.0 15.0 0.00 0.00 0.00 40 1025.6
20181215153059 46 54 5.0 13.0 0.00 0.00 0.00 43 1025.5
20181215151541 45 35 7.0 13.0 0.00 0.00 0.00 44 1025.4
20181215150029 44 50 8.0 15.0 0.00 0.00 0.00 45 1025.1
20181215144604 43 19 8.0 13.0 0.00 0.00 0.00 46 1025.0
20181215143101 42 11 3.0 10.0 0.00 0.00 0.00 49 1024.7
20181215141610 41 36 3.0 8.0 0.00 0.00 0.00 50 1024.6
20181215140022 41 50 3.0 10.0 0.00 0.00 0.00 50 1024.5
20181215134525 40 28 2.0 5.0 0.00 0.00 0.00 51 1024.3
20181215133033 40 40 1.0 8.0 0.00 0.00 0.00 51 1024.2
20181215131514 40 11 0.0 2.0 0.00 0.00 0.00 51 1024.0
20181215130024 41 11 0.0 1.0 0.00 0.00 0.00 50 1023.9
20181215124503 41 40 4.0 10.0 0.00 0.00 0.00 50 1023.8
20181215121635 41 5 3.0 8.0 0.00 0.00 0.00 52 1023.2
20181215114545 41 21 3.0 7.0 0.00 0.00 0.00 50 1022.9
20181215113021 42 16 2.0 4.0 0.00 0.00 0.00 50 1023.1
20181215104614 43 11 0.0 4.0 0.00 0.00 0.00 47 1022.7
20181215104528 43 11 0.0 4.0 0.00 0.00 0.00 47 1022.6
20181215103128 44 17 3.0 8.0 0.00 0.00 0.00 45 1022.8
20181215101600 44 12 5.0 9.0 0.00 0.00 0.00 44 1022.8
20181215100118 45 40 5.0 10.0 0.00 0.00 0.00 43 1023.0
20181215091524 45 10 2.0 5.0 0.00 0.00 0.00 45 1022.9
20181215090021 45 360 3.0 9.0 0.00 0.00 0.00 45 1022.9
20181215084537 46 5 4.0 6.0 0.00 0.00 0.00 45 1022.9
20181215083128 47 11 3.0 7.0 0.00 0.00 0.00 44 1022.8
20181215081527 48 24 3.0 8.0 0.00 0.00 0.00 43 1022.6
20181215073134 49 32 4.0 11.0 0.00 0.00 0.00 41 1022.3
20181215071712 49 44 7.0 12.0 0.00 0.00 0.00 41 1022.3
20181215071510 49 71 6.0 12.0 0.00 0.00 0.00 41 1022.4
20181215064637 50 46 6.0 14.0 0.00 0.00 0.00 41 1022.2
20181215063031 50 28 7.0 13.0 0.00 0.00 0.00 41 1022.2
20181215061535 50 24 7.0 13.0 0.00 0.00 0.00 42 1022.3
20181215054614 50 31 6.0 11.0 0.00 0.00 0.00 43 1022.2
20181215053013 50 57 7.0 16.0 0.00 0.00 0.00 44 1022.0
20181215051509 50 22 5.0 14.0 0.00 0.00 0.00 44 1021.9
20181215050019 51 53 7.0 14.0 0.00 0.00 0.00 45 1021.8
20181215044502 51 32 5.0 13.0 0.00 0.00 0.00 45 1021.8
20181215043003 51 360 3.0 12.0 0.00 0.00 0.00 46 1021.8
20181215041649 52 13 9.0 18.0 0.00 0.00 0.00 46 1021.6
20181215040242 52 11 5.0 15.0 0.00 0.00 0.00 47 1021.4